| time (UTC) | temp F | wind direction | speed knots | gust knots | rain 1hr in | rain 24hr in | rain mn in | humidity % | barometer mb |
| 20260504175015 | 71 | 146 | 0.0 | 7.0 | 0.00 | 0.00 | 0.00 | 34 | 1008.0 |
| 20260504174516 | 71 | 143 | 0.0 | 7.0 | 0.00 | 0.00 | 0.00 | 32 | 1008.0 |
| 20260504174013 | 71 | 108 | 0.0 | 1.7 | 0.00 | 0.00 | 0.00 | 34 | 1008.1 |
| 20260504173513 | 71 | 166 | 0.0 | 0.9 | 0.00 | 0.00 | 0.00 | 32 | 1008.2 |
| 20260504173012 | 71 | 143 | 0.0 | 0.0 | 0.00 | 0.00 | 0.00 | 35 | 1008.1 |
| 20260504172511 | 70 | 300 | 0.0 | 0.9 | 0.00 | 0.00 | 0.00 | 34 | 1008.2 |
| 20260504172012 | 70 | 225 | 0.0 | 1.7 | 0.00 | 0.00 | 0.00 | 33 | 1008.3 |
| 20260504171511 | 70 | 259 | 0.0 | 2.6 | 0.00 | 0.00 | 0.00 | 32 | 1008.4 |
| 20260504171013 | 70 | 156 | 0.0 | 2.6 | 0.00 | 0.00 | 0.00 | 33 | 1008.5 |
| 20260504170513 | 70 | 240 | 0.0 | 0.9 | 0.00 | 0.00 | 0.00 | 34 | 1008.5 |
| 20260504151052 | 66 | 222 | 0.0 | 3.5 | 0.00 | 0.00 | 0.00 | 37 | 1009.8 |
| 20260504150553 | 66 | 132 | 0.0 | 3.5 | 0.00 | 0.00 | 0.00 | 35 | 1009.8 |
| 20260504141039 | 62 | 146 | 0.0 | 4.3 | 0.00 | 0.00 | 0.00 | 41 | 1010.3 |
| 20260504140538 | 62 | 155 | 0.0 | 4.3 | 0.00 | 0.00 | 0.00 | 41 | 1010.3 |
| 20260504130523 | 57 | 222 | 0.0 | 0.0 | 0.00 | 0.00 | 0.00 | 52 | 1011.1 |
| 20260504110559 | 49 | 145 | 0.0 | 0.0 | 0.00 | 0.00 | 0.00 | 62 | 1011.4 |
| 20260504100543 | 44 | 160 | 0.0 | 0.0 | 0.00 | 0.00 | 0.00 | 69 | 1011.0 |
| 20260504081536 | 42 | 186 | 0.0 | 0.0 | 0.00 | 0.00 | 0.00 | 71 | 1010.5 |
| 20260504081032 | 42 | 175 | 0.0 | 0.0 | 0.00 | 0.00 | 0.00 | 71 | 1010.5 |
| 20260504080532 | 43 | 174 | 0.0 | 0.0 | 0.00 | 0.00 | 0.00 | 71 | 1010.5 |
| 20260504050508 | 38 | 356 | 0.0 | 0.0 | 0.00 | 0.00 | 0.00 | 85 | 1010.6 |
| 20260504050007 | 38 | 357 | 0.0 | 0.0 | 0.00 | 0.00 | 0.00 | 85 | 1010.5 |
| 20260504045506 | 38 | 357 | 0.0 | 0.0 | 0.00 | 0.00 | 0.00 | 85 | 1010.5 |
| 20260504045008 | 38 | 357 | 0.0 | 0.0 | 0.00 | 0.00 | 0.00 | 85 | 1010.6 |
| 20260504044515 | 38 | 357 | 0.0 | 0.0 | 0.00 | 0.00 | 0.00 | 84 | 1010.6 |
| 20260504044009 | 38 | 356 | 0.0 | 0.0 | 0.00 | 0.00 | 0.00 | 84 | 1010.6 |
| 20260504043505 | 39 | 356 | 0.0 | 0.0 | 0.00 | 0.00 | 0.00 | 85 | 1010.6 |
| 20260504043009 | 39 | 357 | 0.0 | 0.0 | 0.00 | 0.00 | 0.00 | 85 | 1010.6 |
| 20260504042503 | 39 | 357 | 0.0 | 0.0 | 0.00 | 0.00 | 0.00 | 84 | 1010.6 |
| 20260504042002 | 39 | 357 | 0.0 | 0.0 | 0.00 | 0.00 | 0.00 | 84 | 1010.5 |
| 20260504041504 | 39 | 357 | 0.0 | 0.0 | 0.00 | 0.00 | 0.00 | 84 | 1010.6 |
| 20260504041001 | 39 | 357 | 0.0 | 0.0 | 0.00 | 0.00 | 0.00 | 83 | 1010.5 |
| 20260504040600 | 39 | 356 | 0.0 | 0.0 | 0.00 | 0.00 | 0.00 | 84 | 1010.5 |
| 20260504040105 | 39 | 357 | 0.0 | 0.0 | 0.00 | 0.00 | 0.00 | 83 | 1010.4 |
| 20260504035559 | 39 | 357 | 0.0 | 0.0 | 0.00 | 0.00 | 0.00 | 83 | 1010.4 |
| 20260504035058 | 39 | 357 | 0.0 | 0.0 | 0.00 | 0.00 | 0.00 | 82 | 1010.4 |
| 20260504034608 | 39 | 357 | 0.0 | 0.0 | 0.00 | 0.00 | 0.00 | 82 | 1010.4 |
| 20260504034056 | 40 | 357 | 0.0 | 0.0 | 0.00 | 0.00 | 0.00 | 82 | 1010.4 |
| 20260504033558 | 40 | 357 | 0.0 | 0.0 | 0.00 | 0.00 | 0.00 | 82 | 1010.3 |
| 20260504033126 | 40 | 356 | 0.0 | 0.0 | 0.00 | 0.00 | 0.00 | 82 | 1010.2 |
| 20260504032556 | 40 | 357 | 0.0 | 0.0 | 0.00 | 0.00 | 0.00 | 82 | 1010.2 |
| 20260504032058 | 40 | 357 | 0.0 | 0.0 | 0.00 | 0.00 | 0.00 | 81 | 1010.2 |
| 20260504031558 | 40 | 357 | 0.0 | 0.0 | 0.00 | 0.00 | 0.00 | 81 | 1010.2 |
| 20260504031054 | 40 | 357 | 0.0 | 0.0 | 0.00 | 0.00 | 0.00 | 80 | 1010.2 |
| 20260504030553 | 40 | 356 | 0.0 | 0.0 | 0.00 | 0.00 | 0.00 | 79 | 1010.2 |
| 20260504030053 | 40 | 356 | 0.0 | 0.0 | 0.00 | 0.00 | 0.00 | 79 | 1010.2 |
| 20260504025553 | 41 | 357 | 0.0 | 0.0 | 0.00 | 0.00 | 0.00 | 78 | 1010.2 |
| 20260504025053 | 41 | 356 | 0.0 | 0.0 | 0.00 | 0.00 | 0.00 | 78 | 1010.2 |
| 20260504024552 | 41 | 357 | 0.0 | 0.0 | 0.00 | 0.00 | 0.00 | 77 | 1010.2 |
| 20260504024051 | 41 | 357 | 0.0 | 0.0 | 0.00 | 0.00 | 0.00 | 76 | 1010.2 |
| 20260504023551 | 41 | 356 | 0.0 | 0.0 | 0.00 | 0.00 | 0.00 | 76 | 1010.2 |
| 20260504023101 | 42 | 356 | 0.0 | 0.0 | 0.00 | 0.00 | 0.00 | 75 | 1010.1 |
| 20260504022550 | 42 | 357 | 0.0 | 0.0 | 0.00 | 0.00 | 0.00 | 74 | 1010.1 |
| 20260504022050 | 42 | 357 | 0.0 | 0.0 | 0.00 | 0.00 | 0.00 | 73 | 1010.0 |
| 20260504021553 | 42 | 357 | 0.0 | 0.0 | 0.00 | 0.00 | 0.00 | 73 | 1010.1 |
| 20260504021049 | 43 | 357 | 0.0 | 0.0 | 0.00 | 0.00 | 0.00 | 72 | 1010.1 |
| 20260504020549 | 43 | 357 | 0.0 | 0.0 | 0.00 | 0.00 | 0.00 | 72 | 1010.0 |
| 20260504020057 | 43 | 357 | 0.0 | 0.0 | 0.00 | 0.00 | 0.00 | 71 | 1010.0 |
| 20260504015549 | 44 | 356 | 0.0 | 0.0 | 0.00 | 0.00 | 0.00 | 70 | 1009.9 |
| 20260504015049 | 44 | 356 | 0.0 | 0.0 | 0.00 | 0.00 | 0.00 | 70 | 1009.9 |
| 20260504014551 | 44 | 357 | 0.0 | 0.0 | 0.00 | 0.00 | 0.00 | 68 | 1009.8 |
| 20260504014048 | 45 | 357 | 0.0 | 0.0 | 0.00 | 0.00 | 0.00 | 67 | 1009.8 |
| 20260504013548 | 45 | 356 | 0.0 | 0.0 | 0.00 | 0.00 | 0.00 | 66 | 1009.8 |
| 20260504013103 | 45 | 356 | 0.0 | 0.0 | 0.00 | 0.00 | 0.00 | 65 | 1009.7 |
| 20260504012551 | 45 | 357 | 0.0 | 0.0 | 0.00 | 0.00 | 0.00 | 64 | 1009.7 |
| 20260504012048 | 45 | 357 | 0.0 | 0.0 | 0.00 | 0.00 | 0.00 | 64 | 1009.7 |
| 20260504011548 | 45 | 357 | 0.0 | 0.0 | 0.00 | 0.00 | 0.00 | 64 | 1009.6 |
| 20260504011048 | 45 | 357 | 0.0 | 0.0 | 0.00 | 0.00 | 0.00 | 63 | 1009.5 |
| 20260504010547 | 45 | 357 | 0.0 | 0.0 | 0.00 | 0.00 | 0.00 | 62 | 1009.4 |
| 20260504010054 | 45 | 356 | 0.0 | 0.0 | 0.00 | 0.00 | 0.00 | 62 | 1009.3 |
| 20260504005549 | 45 | 357 | 0.0 | 0.0 | 0.00 | 0.00 | 0.00 | 62 | 1009.3 |
| 20260504005047 | 45 | 357 | 0.0 | 0.0 | 0.00 | 0.00 | 0.00 | 61 | 1009.2 |
| 20260504004600 | 46 | 357 | 0.0 | 0.0 | 0.00 | 0.00 | 0.00 | 60 | 1009.0 |
| 20260504004047 | 46 | 356 | 0.0 | 0.0 | 0.00 | 0.00 | 0.00 | 59 | 1009.0 |
| 20260504003546 | 46 | 357 | 0.0 | 0.0 | 0.00 | 0.00 | 0.00 | 58 | 1008.9 |
| 20260504003046 | 47 | 357 | 0.0 | 0.0 | 0.00 | 0.00 | 0.00 | 56 | 1008.8 |
| 20260504002546 | 47 | 356 | 0.0 | 0.0 | 0.00 | 0.00 | 0.00 | 55 | 1008.8 |
| 20260504002046 | 48 | 356 | 0.0 | 0.0 | 0.00 | 0.00 | 0.00 | 53 | 1008.7 |
| 20260504001546 | 48 | 357 | 0.0 | 0.0 | 0.00 | 0.00 | 0.00 | 52 | 1008.6 |
| 20260504001046 | 49 | 356 | 0.0 | 0.0 | 0.00 | 0.00 | 0.00 | 51 | 1008.5 |
| 20260504000545 | 50 | 356 | 0.0 | 0.0 | 0.00 | 0.00 | 0.00 | 49 | 1008.5 |
| 20260504000045 | 50 | 356 | 0.0 | 0.0 | 0.00 | 0.00 | 0.00 | 47 | 1008.4 |
| 20260503235544 | 51 | 356 | 0.0 | 0.0 | 0.00 | 0.00 | 0.00 | 45 | 1008.3 |
| 20260503235044 | 51 | 357 | 0.0 | 0.0 | 0.00 | 0.00 | 0.00 | 43 | 1008.3 |
| 20260503234547 | 52 | 356 | 0.0 | 0.0 | 0.00 | 0.00 | 0.00 | 41 | 1008.3 |
| 20260503234044 | 53 | 357 | 0.0 | 0.0 | 0.00 | 0.00 | 0.00 | 40 | 1008.3 |
| 20260503233547 | 53 | 357 | 0.0 | 0.0 | 0.00 | 0.00 | 0.00 | 39 | 1008.3 |
| 20260503233043 | 54 | 350 | 0.0 | 0.0 | 0.00 | 0.00 | 0.00 | 38 | 1008.2 |
| 20260503232547 | 54 | 15 | 0.0 | 0.0 | 0.00 | 0.00 | 0.00 | 38 | 1008.2 |
| 20260503232043 | 54 | 15 | 0.0 | 0.0 | 0.00 | 0.00 | 0.00 | 36 | 1008.2 |
| 20260503231543 | 54 | 55 | 0.0 | 0.0 | 0.00 | 0.00 | 0.00 | 36 | 1008.1 |
| 20260503231043 | 55 | 337 | 0.0 | 0.0 | 0.00 | 0.00 | 0.00 | 37 | 1008.2 |
| 20260503230543 | 55 | 82 | 0.0 | 2.6 | 0.00 | 0.00 | 0.00 | 36 | 1008.1 |
| 20260503230048 | 55 | 255 | 0.0 | 2.6 | 0.00 | 0.00 | 0.00 | 36 | 1008.1 |
| 20260503225542 | 55 | 25 | 0.0 | 4.3 | 0.00 | 0.00 | 0.00 | 35 | 1008.1 |
| 20260503225042 | 55 | 278 | 0.0 | 0.0 | 0.00 | 0.00 | 0.00 | 37 | 1008.0 |
| 20260503224542 | 55 | 51 | 0.0 | 0.0 | 0.00 | 0.00 | 0.00 | 37 | 1008.0 |
| 20260503224042 | 55 | 30 | 0.0 | 2.6 | 0.00 | 0.00 | 0.00 | 37 | 1008.0 |
| 20260503223541 | 55 | 260 | 0.0 | 2.6 | 0.00 | 0.00 | 0.00 | 37 | 1008.0 |
| 20260503223046 | 55 | 302 | 0.0 | 0.0 | 0.00 | 0.00 | 0.00 | 38 | 1008.0 |
| 20260503222541 | 55 | 28 | 0.0 | 3.5 | 0.00 | 0.00 | 0.00 | 37 | 1007.9 |
| 20260503222041 | 55 | 9 | 0.0 | 3.5 | 0.00 | 0.00 | 0.00 | 36 | 1007.9 |
| 20260503221544 | 55 | 27 | 0.0 | 0.9 | 0.00 | 0.00 | 0.00 | 36 | 1007.8 |
| 20260503221042 | 56 | 44 | 0.0 | 4.3 | 0.00 | 0.00 | 0.00 | 36 | 1007.9 |
| 20260503220541 | 56 | 319 | 0.0 | 4.3 | 0.00 | 0.00 | 0.00 | 36 | 1007.9 |
| 20260503220041 | 55 | 333 | 0.0 | 0.9 | 0.00 | 0.00 | 0.00 | 36 | 1008.0 |
| 20260503215541 | 56 | 325 | 0.0 | 3.5 | 0.00 | 0.00 | 0.00 | 37 | 1008.1 |
| 20260503215041 | 56 | 50 | 0.0 | 3.5 | 0.00 | 0.00 | 0.00 | 36 | 1008.0 |
| 20260503214540 | 55 | 232 | 0.0 | 1.7 | 0.00 | 0.00 | 0.00 | 36 | 1008.1 |
| 20260503214043 | 56 | 224 | 0.0 | 1.7 | 0.00 | 0.00 | 0.00 | 37 | 1008.0 |
| 20260503213540 | 56 | 263 | 0.0 | 1.7 | 0.00 | 0.00 | 0.00 | 36 | 1008.1 |
| 20260503213057 | 56 | 9 | 0.0 | 3.5 | 0.00 | 0.00 | 0.00 | 36 | 1007.9 |
| 20260503212540 | 56 | 329 | 0.0 | 6.1 | 0.00 | 0.00 | 0.00 | 36 | 1007.9 |
| 20260503212040 | 56 | 20 | 0.0 | 6.1 | 0.00 | 0.00 | 0.00 | 36 | 1007.9 |
| 20260503211539 | 57 | 297 | 0.0 | 5.2 | 0.00 | 0.00 | 0.00 | 36 | 1007.9 |
| 20260503211038 | 56 | 129 | 0.0 | 5.2 | 0.00 | 0.00 | 0.00 | 36 | 1007.9 |
| 20260503210540 | 56 | 112 | 0.0 | 5.2 | 0.00 | 0.00 | 0.00 | 36 | 1007.8 |
| 20260503210047 | 56 | 25 | 0.0 | 5.2 | 0.00 | 0.00 | 0.00 | 35 | 1007.9 |
| 20260503205538 | 56 | 321 | 0.0 | 4.3 | 0.00 | 0.00 | 0.00 | 36 | 1007.9 |
| 20260503205038 | 56 | 359 | 0.0 | 6.1 | 0.00 | 0.00 | 0.00 | 37 | 1007.9 |
| 20260503204547 | 56 | 241 | 0.0 | 6.1 | 0.00 | 0.00 | 0.00 | 36 | 1007.8 |
| 20260503204037 | 56 | 273 | 0.0 | 3.5 | 0.00 | 0.00 | 0.00 | 37 | 1007.8 |
| 20260503203536 | 56 | 283 | 0.0 | 6.1 | 0.00 | 0.00 | 0.00 | 37 | 1007.9 |
| 20260503203036 | 56 | 265 | 0.0 | 7.0 | 0.00 | 0.00 | 0.00 | 36 | 1007.8 |
| 20260503202537 | 56 | 257 | 0.0 | 7.8 | 0.00 | 0.00 | 0.00 | 36 | 1007.8 |
| 20260503202036 | 56 | 269 | 0.0 | 7.8 | 0.00 | 0.00 | 0.00 | 36 | 1007.7 |
| 20260503201538 | 56 | 215 | 0.0 | 6.1 | 0.00 | 0.00 | 0.00 | 38 | 1007.8 |
| 20260503201035 | 55 | 359 | 0.0 | 6.1 | 0.00 | 0.00 | 0.00 | 37 | 1007.8 |
| 20260503200535 | 55 | 285 | 0.0 | 6.1 | 0.00 | 0.00 | 0.00 | 38 | 1007.7 |
| 20260503200036 | 54 | 297 | 0.0 | 6.1 | 0.00 | 0.00 | 0.00 | 36 | 1007.6 |
| 20260503195535 | 54 | 326 | 0.0 | 11.3 | 0.00 | 0.00 | 0.00 | 38 | 1007.8 |
| 20260503195035 | 55 | 204 | 0.9 | 11.3 | 0.00 | 0.00 | 0.00 | 37 | 1007.9 |
| 20260503194537 | 55 | 47 | 0.0 | 2.6 | 0.00 | 0.00 | 0.00 | 40 | 1007.6 |
| 20260503194036 | 54 | 289 | 0.0 | 6.1 | 0.00 | 0.00 | 0.00 | 42 | 1007.8 |
| 20260503193535 | 54 | 39 | 0.0 | 6.1 | 0.00 | 0.00 | 0.00 | 38 | 1007.7 |
| 20260503193045 | 54 | 336 | 0.0 | 7.0 | 0.00 | 0.00 | 0.00 | 38 | 1007.7 |
| 20260503192535 | 55 | 34 | 0.0 | 10.4 | 0.00 | 0.00 | 0.00 | 37 | 1007.7 |
| 20260503192034 | 56 | 44 | 0.0 | 10.4 | 0.00 | 0.00 | 0.00 | 37 | 1007.6 |
| 20260503191534 | 56 | 354 | 0.0 | 5.2 | 0.00 | 0.00 | 0.00 | 39 | 1007.8 |
| 20260503191033 | 56 | 67 | 0.0 | 1.7 | 0.00 | 0.00 | 0.00 | 37 | 1007.6 |
| 20260503190532 | 56 | 298 | 0.0 | 5.2 | 0.00 | 0.00 | 0.00 | 37 | 1007.6 |
| 20260503190036 | 56 | 104 | 0.0 | 5.2 | 0.00 | 0.00 | 0.00 | 41 | 1007.6 |
| 20260503185532 | 56 | 40 | 0.0 | 5.2 | 0.00 | 0.03 | 0.00 | 39 | 1007.7 |
| 20260503185035 | 56 | 325 | 0.0 | 5.2 | 0.00 | 0.03 | 0.00 | 39 | 1007.7 |
| 20260503184538 | 56 | 278 | 0.0 | 2.6 | 0.00 | 0.03 | 0.00 | 36 | 1007.5 |
| 20260503184032 | 56 | 345 | 0.0 | 2.6 | 0.00 | 0.03 | 0.00 | 38 | 1007.6 |
| 20260503183532 | 55 | 256 | 0.0 | 0.0 | 0.00 | 0.03 | 0.00 | 37 | 1007.6 |
| 20260503183030 | 55 | 263 | 0.0 | 3.5 | 0.00 | 0.03 | 0.00 | 37 | 1007.6 |
| 20260503182531 | 56 | 271 | 0.0 | 3.5 | 0.00 | 0.03 | 0.00 | 37 | 1007.6 |
| 20260503182030 | 55 | 250 | 0.0 | 1.7 | 0.00 | 0.03 | 0.00 | 39 | 1007.6 |
| 20260503181527 | 54 | 349 | 0.0 | 1.7 | 0.00 | 0.03 | 0.00 | 39 | 1007.5 |
| 20260503181027 | 54 | 32 | 0.0 | 0.0 | 0.00 | 0.03 | 0.00 | 39 | 1007.6 |
| 20260503180527 | 54 | 321 | 0.0 | 0.9 | 0.00 | 0.03 | 0.00 | 40 | 1007.6 |
| 20260503180031 | 54 | 5 | 0.0 | 3.5 | 0.00 | 0.03 | 0.00 | 39 | 1007.7 |
| 20260503175525 | 53 | 23 | 0.0 | 3.5 | 0.00 | 0.09 | 0.00 | 39 | 1007.7 |